Location: Huberhof
(49.2050°N, 7.4980°E)
Time: 05:34:21
(UTC+00:00)

PSLV R/B - Pass Details

Date: 29 October 2020
Orbit: 567 x 599 km, 98.2° (Epoch: 25 November)

Event Time Altitude Azimuth Distance (km) Brightness Sun altitude
Rises 17:33:16 0° 17° (NNE) 2,843 7.2 -13.6°
Reaches altitude 10° 17:35:29 10° 22° (NNE) 1,931 6.3 -13.9°
Maximum altitude 17:39:36 54° 101° (E) 715 4.0 -14.6°
Drops below altitude 10° 17:43:38 10° 179° (S) 1,897 6.6 -15.2°
Sets 17:45:48 0° 184° (S) 2,786 7.5 -15.6°
